Location: Caltech
(34.1382°N, 118.1253°W)
Time: 12:48:52
(UTC-07:00)

CZ-4B DEB - Visible Passes

Search period start: 23 August 2014 00:00
Search period end: 02 September 2014 00:00
Orbit: 842 x 865 km, 98.8° (Epoch: 22 August)

Date Brightness Start Highest point End Pass type
(mag) Time Alt. Az. Time Alt. Az. Time Alt. Az.
23 Aug 5.5 03:41:54 10° NNE 03:46:51 34° E 03:49:08 25° SE visible
23 Aug 5.3 05:22:55 10° NNW 05:27:23 26° WNW 05:31:11 13° WSW visible
24 Aug 5.9 03:31:18 10° NE 03:35:54 27° E 03:38:02 21° SE visible
24 Aug 5.0 05:11:45 10° N 05:16:35 33° WNW 05:20:06 17° WSW visible
25 Aug 6.2 03:20:51 10° NE 03:24:56 21° E 03:26:56 18° ESE visible
25 Aug 4.7 05:00:40 10° N 05:05:46 42° WNW 05:09:00 21° SW visible
26 Aug 6.5 03:10:34 10° NE 03:13:57 17° E 03:15:50 14° ESE visible
26 Aug 4.4 04:49:37 10° N 04:54:56 53° WNW 04:57:54 26° SW visible
27 Aug 6.7 03:00:40 10° ENE 03:02:57 13° E 03:04:45 11° ESE visible
27 Aug 4.2 04:38:39 10° N 04:44:05 67° WNW 04:46:49 30° SSW visible
28 Aug 4.1 04:27:43 10° NNE 04:33:13 85° WNW 04:35:43 34° SSW visible
29 Aug 4.3 04:16:50 10° NNE 04:22:20 76° ESE 04:24:37 37° S visible
30 Aug 4.6 04:06:00 10° NNE 04:11:26 60° ESE 04:13:31 37° SSE visible
30 Aug 5.8 05:48:27 10° NNW 05:51:38 16° WNW 05:54:50 10° W visible
31 Aug 5.0 03:55:14 10° NNE 04:00:32 47° E 04:02:25 34° SSE visible
31 Aug 5.6 05:37:00 10° NNW 05:40:53 20° WNW 05:44:29 11° WSW visible
01 Sep 5.4 03:44:32 10° NNE 03:49:36 37° E 03:51:19 30° SE visible
01 Sep 5.3 05:25:43 10° NNW 05:30:06 25° WNW 05:33:23 15° WSW visible
